Regional Weather Roundup
Issued by NWS Goodland, KS

Home | Current Version | Previous Version | Graphics & Text | Print | Product List | Glossary On
Versions: 1 2 3 4 5 6 7 8 9 10 11 12 13 14 15 16 17 18 19 20 21 22 23 24 25 26 27 28 29 30 31 32 33 34 35 36 37 38 39 40 41 42 43 44 45 46 47 48 49 50
000
ASUS43 KGLD 020759
RWRGLD

GOODLAND FORECAST AREA HOURLY WEATHER ROUNDUP
NATIONAL WEATHER SERVICE GOODLAND KS
200 AM MDT THU JUL 02 2015

...OFFICIAL OBSERVATIONS...

CITY           SKY/WX    TMP DP  RH WIND       PRES   REMARKS
GOODLAND KS    PTCLDY    64  59  83 N8        30.01S
HILL CITY KS   CLOUDY    72  64  76 N6        29.92R
IMPERIAL NEB   MOCLDY    69  59  70 CALM      29.98S
MCCOOK NEB     CLOUDY    77  60  55 W10       29.94R
AKRON CO       CLEAR     65  56  72 S8        30.09S
BURLINGTON CO  PTCLDY    63  60  90 W9        30.06F
LIMON CO       CLEAR     61  56  83 S5        30.15F
$$

...UNOFFICIAL OBSERVATIONS...

CITY           SKY/WX    TMP DP  RH WIND       PRES   REMARKS
COLBY KS       CLEAR     70  61  73 NW3       29.99S
GOVE KS          N/A     73  32  22 MISG        N/A
NORTON KS      PTCLDY    70  61  73 W6        29.93R
SHARON SPRINGS   N/A     70  63  79 CALM        N/A
KIT CARSON CO    N/A     64  60  88 MISG        N/A
YUMA CO          N/A     65  55  69 CALM        N/A
$$


USA.gov is the U.S. government's official web portal to all federal, state and local government web resources and services.